CW3081 Weather Reports


time (UTC)temp
F
wind
direction
speed
knots
gust
knots
rain 1hr
in
rain 24hr
in
rain mn
in
humidity
%
barometer
mb
20260504194549 79 264 0.9 4.3 0.00 0.00 0.00 44 1010.9
20260504193041 78 261 1.7 4.3 0.00 0.00 0.00 45 1011.2
20260504191548 79 182 0.9 3.5 0.00 0.00 0.00 46 1011.3
20260504190048 78 274 2.6 4.3 0.00 0.00 0.00 46 1011.5
20260504184542 78 226 1.7 3.5 0.00 0.00 0.00 48 1011.7
20260504183046 78 226 1.7 5.2 0.00 0.00 0.00 49 1011.7
20260504181550 78 214 1.7 3.5 0.00 0.00 0.00 49 1012.0
20260504180049 77 276 1.7 3.5 0.00 0.00 0.00 51 1012.1
20260504174550 77 180 0.0 3.5 0.00 0.00 0.00 53 1012.1
20260504173049 76 272 1.7 3.5 0.00 0.00 0.00 52 1012.5
20260504171549 76 261 1.7 2.6 0.00 0.00 0.00 54 1012.5
20260504081551 54 0 0.0 0.9 0.00 0.00 0.00 68 1013.7
20260504044542 55 217 0.0 0.9 0.00 0.00 0.00 65 1014.8
20260504043042 55 215 0.0 0.9 0.00 0.00 0.00 64 1015.0
20260504041546 54 215 0.0 0.9 0.00 0.00 0.00 65 1015.1
20260504040107 53 208 0.0 0.9 0.00 0.00 0.00 67 1015.3
20260504034545 52 0 0.0 0.0 0.00 0.00 0.00 72 1015.5
20260504033047 52 0 0.0 0.0 0.00 0.00 0.00 71 1015.6
20260504031542 53 0 0.0 0.0 0.00 0.00 0.00 69 1015.6
20260504030049 53 0 0.0 0.9 0.00 0.00 0.00 71 1015.7
20260504024547 55 0 0.0 0.0 0.00 0.00 0.00 70 1015.7
20260504023053 56 0 0.0 0.0 0.00 0.00 0.00 62 1015.6
20260504021542 56 207 0.0 0.9 0.00 0.00 0.00 61 1015.3
20260504020042 56 247 0.0 0.9 0.00 0.00 0.00 61 1015.3
20260504014559 56 247 0.0 0.9 0.00 0.00 0.00 61 1015.2
20260504013046 57 0 0.0 0.0 0.00 0.00 0.00 60 1015.0
20260504011543 57 0 0.0 0.9 0.00 0.00 0.00 61 1014.9
20260504010054 58 247 0.0 0.9 0.00 0.00 0.00 59 1015.1
20260504004549 60 0 0.0 0.0 0.00 0.00 0.00 57 1015.4
20260504003055 62 0 0.0 0.0 0.00 0.00 0.00 52 1015.3
20260504001601 63 0 0.0 0.9 0.00 0.00 0.00 47 1015.4
20260504000047 64 0 0.0 0.9 0.00 0.00 0.00 44 1015.3
20260503234544 64 247 0.0 0.9 0.00 0.00 0.00 44 1015.5
20260503233048 65 243 0.0 1.7 0.00 0.00 0.00 45 1015.8
20260503231548 65 0 0.0 0.9 0.00 0.00 0.00 44 1015.9
20260503230047 66 253 0.0 2.6 0.00 0.00 0.00 42 1015.9
20260503224546 66 282 0.9 2.6 0.00 0.00 0.00 41 1016.0
20260503223050 66 282 0.9 2.6 0.00 0.00 0.00 40 1016.0
20260503221553 66 234 0.0 1.7 0.00 0.00 0.00 41 1016.3
20260503220044 67 256 1.7 2.6 0.00 0.00 0.00 39 1016.5
20260503214547 66 243 0.9 2.6 0.00 0.00 0.00 41 1016.7
20260503213040 66 267 0.9 2.6 0.00 0.00 0.00 43 1017.0
20260503211545 66 250 0.0 2.6 0.00 0.00 0.00 41 1017.1
20260503210044 66 260 1.7 2.6 0.00 0.00 0.00 39 1017.5
20260503204543 66 195 0.9 3.5 0.00 0.00 0.00 42 1017.5
20260503203047 66 285 0.9 2.6 0.00 0.00 0.00 43 1017.8
20260503201546 66 237 0.0 2.6 0.00 0.00 0.00 42 1018.1
20260503200050 66 271 0.9 2.6 0.00 0.00 0.00 42 1018.5